sat.trackr.live / text

‹ back to catalog

STARLINK-35364

NORAD 65840 · 2025-221T

PAYLOAD ACTIVE UNKNOWN

§ Identity

Operator
Country
US
Launch date
2025-09-29
Launch site
AFWTR
Launch vehicle
Mass (kg)
RCS (m²)

Purposes: comms

External: N2YO · Heavens-Above · Gunter

§ Orbital elements

Epoch: 2026-05-25T02:56:46.452768Z

Period
93.85 min
Inclination
53.1603°
Eccentricity
0.0001164
Mean motion
15.34396805 rev/d
Perigee alt
461.9 km
Apogee alt
463.5 km
Semi-major
6,840.8 km
B*
7.8701e-4
RAAN
92.7550°
Arg perigee
64.0686°
Mean anomaly
296.0436°
Rev number
3,644

§ Raw data

STARLINK-353641 65840U 25221T   26145.12275987  .00026305  00000+0  78701-3 0  99952 65840  53.1603  92.7550 0001164  64.0686 296.0436 15.34396805 36444

JSON: /api/v1/satellites/65840 · /tle

For live sub-satellite position, see the globe view (requires WebGL).

§ Visibility from observer

Set your observer location to see the next 7 days of passes ≥ 10°. The values pass through the URL so the page stays shareable.

No JS? Fill the form by hand. The geolocation button needs JavaScript.